| time (UTC) | temp F | wind direction | speed MPH | gust MPH | rain 1hr in | rain 24hr in | rain mn in | humidity % | barometer mb |
| 20260903165601 | 60 | 225 | 3.0 | 6.0 | 0.01 | 0.15 | 0.03 | 56 | 1009.9 |
| 20260903164519 | 60 | 225 | 3.0 | 7.0 | 0.01 | 0.15 | 0.03 | 55 | 1009.9 |
| 20260903163519 | 60 | 225 | 1.0 | 4.0 | 0.01 | 0.15 | 0.03 | 57 | 1010.0 |
| 20260903162519 | 59 | 225 | 2.0 | 5.0 | 0.00 | 0.14 | 0.02 | 57 | 1010.0 |
| 20260903161541 | 59 | 0.0 | 0.0 | 0.00 | 0.14 | 0.02 | 57 | 1010.0 | |
| 20260903160520 | 58 | 225 | 2.0 | 4.0 | 0.00 | 0.14 | 0.02 | 58 | 1009.8 |
| 20260903155520 | 58 | 225 | 1.0 | 6.0 | 0.00 | 0.14 | 0.02 | 57 | 1009.8 |
| 20260903154518 | 57 | 225 | 3.0 | 6.0 | 0.00 | 0.14 | 0.02 | 59 | 1009.8 |
| 20260903153520 | 57 | 0.0 | 0.0 | 0.00 | 0.14 | 0.02 | 60 | 1009.8 | |
| 20260903152520 | 56 | 0.0 | 0.0 | 0.00 | 0.14 | 0.02 | 59 | 1009.9 | |
| 20260903151520 | 56 | 0.0 | 0.0 | 0.00 | 0.14 | 0.02 | 58 | 1009.9 | |
| 20260903150521 | 56 | 0.0 | 0.0 | 0.00 | 0.14 | 0.02 | 59 | 1009.8 | |
| 20260903145518 | 56 | 0.0 | 0.0 | 0.00 | 0.14 | 0.02 | 60 | 1009.8 | |
| 20260903144520 | 55 | 0.0 | 0.0 | 0.00 | 0.14 | 0.02 | 60 | 1009.6 | |
| 20260903143520 | 55 | 0.0 | 0.0 | 0.00 | 0.14 | 0.02 | 60 | 1009.6 | |
| 20260903142520 | 54 | 0.0 | 0.0 | 0.00 | 0.14 | 0.02 | 60 | 1009.4 | |
| 20260903141518 | 52 | 0.0 | 0.0 | 0.00 | 0.14 | 0.02 | 62 | 1009.3 | |
| 20260903140520 | 52 | 0.0 | 0.0 | 0.00 | 0.14 | 0.02 | 62 | 1009.3 | |
| 20260903135520 | 52 | 0.0 | 0.0 | 0.00 | 0.14 | 0.02 | 62 | 1009.3 | |
| 20260903134520 | 52 | 225 | 1.0 | 4.0 | 0.00 | 0.14 | 0.02 | 62 | 1009.3 |
| 20260903133521 | 53 | 225 | 1.0 | 4.0 | 0.00 | 0.14 | 0.02 | 62 | 1009.2 |
| 20260903132520 | 53 | 0.0 | 1.0 | 0.00 | 0.14 | 0.02 | 62 | 1009.2 | |
| 20260903131519 | 53 | 0.0 | 0.0 | 0.00 | 0.14 | 0.02 | 62 | 1009.1 | |
| 20260903130520 | 53 | 0.0 | 2.0 | 0.00 | 0.14 | 0.02 | 62 | 1009.0 | |
| 20260903125520 | 53 | 203 | 1.0 | 4.0 | 0.00 | 0.14 | 0.02 | 62 | 1009.0 |
| 20260903124520 | 54 | 203 | 2.0 | 5.0 | 0.00 | 0.14 | 0.02 | 62 | 1008.9 |
| 20260903123519 | 54 | 203 | 5.0 | 8.0 | 0.00 | 0.14 | 0.02 | 62 | 1008.9 |
| 20260903122520 | 54 | 203 | 4.0 | 8.0 | 0.00 | 0.14 | 0.02 | 63 | 1008.8 |
| 20260903121520 | 54 | 225 | 4.0 | 8.0 | 0.00 | 0.14 | 0.02 | 63 | 1008.8 |
| 20260903120520 | 54 | 203 | 5.0 | 9.0 | 0.00 | 0.14 | 0.02 | 64 | 1008.6 |
| 20260903115520 | 54 | 203 | 3.0 | 6.0 | 0.00 | 0.14 | 0.02 | 64 | 1008.7 |
| 20260903114539 | 55 | 203 | 5.0 | 9.0 | 0.00 | 0.14 | 0.02 | 64 | 1008.6 |
| 20260903113520 | 55 | 203 | 6.0 | 10.0 | 0.00 | 0.14 | 0.02 | 64 | 1008.6 |
| 20260903112540 | 55 | 225 | 7.0 | 12.0 | 0.00 | 0.14 | 0.02 | 63 | 1008.6 |
| 20260903111540 | 55 | 225 | 3.0 | 6.0 | 0.00 | 0.14 | 0.02 | 63 | 1008.6 |
| 20260903110519 | 56 | 248 | 3.0 | 5.0 | 0.00 | 0.14 | 0.02 | 62 | 1008.5 |
| 20260903105520 | 56 | 203 | 1.0 | 6.0 | 0.00 | 0.14 | 0.02 | 62 | 1008.2 |
| 20260903104520 | 56 | 225 | 5.0 | 9.0 | 0.00 | 0.14 | 0.02 | 61 | 1008.1 |
| 20260903103600 | 56 | 225 | 4.0 | 7.0 | 0.00 | 0.14 | 0.02 | 61 | 1008.2 |
| 20260903102519 | 56 | 203 | 1.0 | 5.0 | 0.00 | 0.14 | 0.02 | 61 | 1008.4 |
| 20260903101519 | 56 | 225 | 4.0 | 8.0 | 0.00 | 0.14 | 0.02 | 62 | 1008.3 |
| 20260903100519 | 57 | 0.0 | 0.0 | 0.00 | 0.14 | 0.02 | 63 | 1008.2 | |
| 20260903095520 | 57 | 0.0 | 1.0 | 0.00 | 0.14 | 0.02 | 64 | 1008.2 | |
| 20260903094520 | 57 | 0.0 | 0.0 | 0.00 | 0.14 | 0.02 | 64 | 1008.1 | |
| 20260903093600 | 57 | 203 | 1.0 | 4.0 | 0.00 | 0.14 | 0.02 | 64 | 1008.1 |
| 20260903092519 | 57 | 203 | 2.0 | 4.0 | 0.00 | 0.14 | 0.02 | 64 | 1008.1 |
| 20260903091519 | 57 | 203 | 3.0 | 5.0 | 0.00 | 0.14 | 0.02 | 64 | 1008.0 |
| 20260903090519 | 57 | 203 | 2.0 | 6.0 | 0.00 | 0.14 | 0.02 | 65 | 1007.8 |
| 20260903085519 | 57 | 180 | 1.0 | 4.0 | 0.00 | 0.14 | 0.02 | 66 | 1007.8 |
| 20260903084519 | 57 | 158 | 2.0 | 7.0 | 0.00 | 0.14 | 0.02 | 67 | 1007.8 |
| 20260903083519 | 57 | 135 | 1.0 | 4.0 | 0.00 | 0.14 | 0.02 | 67 | 1007.7 |
| 20260903082519 | 57 | 0.0 | 2.0 | 0.01 | 0.14 | 0.02 | 67 | 1007.6 | |
| 20260903081539 | 57 | 0.0 | 2.0 | 0.01 | 0.14 | 0.02 | 68 | 1007.6 | |
| 20260903080519 | 57 | 90 | 3.0 | 4.0 | 0.02 | 0.14 | 0.02 | 68 | 1007.3 |
| 20260903075520 | 57 | 0.0 | 1.0 | 0.02 | 0.14 | 0.02 | 68 | 1007.6 | |
| 20260903074519 | 58 | 0.0 | 2.0 | 0.03 | 0.14 | 0.02 | 68 | 1007.6 | |
| 20260903073519 | 58 | 0.0 | 2.0 | 0.03 | 0.14 | 0.02 | 68 | 1007.4 | |
| 20260903072519 | 58 | 0.0 | 2.0 | 0.02 | 0.13 | 0.01 | 68 | 1007.3 | |
| 20260903071519 | 58 | 0.0 | 0.0 | 0.02 | 0.13 | 0.01 | 67 | 1007.5 | |
| 20260903070540 | 59 | 0.0 | 0.0 | 0.01 | 0.12 | 0.00 | 66 | 1007.2 | |
| 20260903065519 | 59 | 0.0 | 0.0 | 0.01 | 0.12 | 0.12 | 66 | 1007.2 | |
| 20260903064520 | 59 | 0.0 | 0.0 | 0.00 | 0.11 | 0.11 | 65 | 1007.2 | |
| 20260903063519 | 59 | 180 | 1.0 | 4.0 | 0.00 | 0.11 | 0.11 | 64 | 1006.9 |
| 20260903062519 | 59 | 180 | 2.0 | 10.0 | 0.00 | 0.11 | 0.11 | 64 | 1007.1 |
| 20260903061519 | 59 | 203 | 2.0 | 5.0 | 0.01 | 0.11 | 0.11 | 64 | 1007.0 |
| 20260903060519 | 59 | 180 | 4.0 | 9.0 | 0.01 | 0.11 | 0.11 | 64 | 1006.9 |
| 20260903055539 | 60 | 180 | 4.0 | 8.0 | 0.01 | 0.11 | 0.11 | 64 | 1006.8 |
| 20260903054519 | 60 | 180 | 6.0 | 15.0 | 0.02 | 0.11 | 0.11 | 64 | 1006.9 |
| 20260903053519 | 60 | 180 | 3.0 | 5.0 | 0.03 | 0.11 | 0.11 | 65 | 1007.0 |
| 20260903052519 | 60 | 180 | 4.0 | 8.0 | 0.04 | 0.11 | 0.11 | 66 | 1007.0 |
| 20260903051519 | 60 | 180 | 4.0 | 7.0 | 0.04 | 0.10 | 0.10 | 66 | 1007.0 |
| 20260903050519 | 60 | 180 | 3.0 | 6.0 | 0.05 | 0.10 | 0.10 | 67 | 1007.1 |
| 20260903045519 | 60 | 158 | 2.0 | 8.0 | 0.06 | 0.10 | 0.10 | 68 | 1007.0 |
| 20260903044539 | 60 | 158 | 2.0 | 9.0 | 0.06 | 0.09 | 0.09 | 67 | 1007.0 |
| 20260903043519 | 60 | 158 | 2.0 | 8.0 | 0.05 | 0.08 | 0.08 | 68 | 1006.9 |
| 20260903042519 | 60 | 158 | 2.0 | 5.0 | 0.05 | 0.07 | 0.07 | 68 | 1007.0 |
| 20260903041519 | 60 | 158 | 2.0 | 7.0 | 0.05 | 0.06 | 0.06 | 68 | 1007.0 |
| 20260903040519 | 60 | 158 | 2.0 | 8.0 | 0.04 | 0.05 | 0.05 | 68 | 1007.1 |
| 20260903035519 | 60 | 158 | 1.0 | 4.0 | 0.03 | 0.04 | 0.04 | 67 | 1007.1 |
| 20260903034519 | 60 | 158 | 2.0 | 8.0 | 0.03 | 0.03 | 0.03 | 66 | 1007.0 |
| 20260903033519 | 61 | 158 | 1.0 | 3.0 | 0.03 | 0.03 | 0.03 | 66 | 1006.9 |
| 20260903032519 | 60 | 0.0 | 2.0 | 0.02 | 0.02 | 0.02 | 66 | 1006.8 | |
| 20260903031519 | 60 | 0.0 | 4.0 | 0.01 | 0.01 | 0.01 | 66 | 1006.7 | |
| 20260903030519 | 60 | 0.0 | 4.0 | 0.01 | 0.01 | 0.01 | 65 | 1006.5 | |
| 20260903025519 | 60 | 203 | 1.0 | 5.0 | 0.01 | 0.01 | 0.01 | 65 | 1006.5 |
| 20260903024519 | 61 | 0.0 | 0.0 | 0.00 | 0.00 | 0.00 | 63 | 1006.5 | |
| 20260903023519 | 61 | 203 | 2.0 | 4.0 | 0.00 | 0.00 | 0.00 | 62 | 1006.5 |
| 20260903022518 | 62 | 203 | 6.0 | 11.0 | 0.00 | 0.00 | 0.00 | 59 | 1006.5 |
| 20260903021539 | 63 | 225 | 7.0 | 15.0 | 0.00 | 0.00 | 0.00 | 55 | 1006.5 |
| 20260903020519 | 64 | 203 | 7.0 | 13.0 | 0.00 | 0.00 | 0.00 | 53 | 1006.5 |
| 20260903015519 | 64 | 203 | 7.0 | 16.0 | 0.00 | 0.00 | 0.00 | 51 | 1006.5 |
| 20260903014519 | 65 | 203 | 7.0 | 13.0 | 0.00 | 0.00 | 0.00 | 50 | 1006.4 |
| 20260903013519 | 65 | 203 | 7.0 | 14.0 | 0.00 | 0.00 | 0.00 | 50 | 1006.4 |
| 20260903012559 | 65 | 225 | 6.0 | 12.0 | 0.00 | 0.00 | 0.00 | 49 | 1006.5 |
| 20260903011518 | 65 | 225 | 6.0 | 12.0 | 0.00 | 0.00 | 0.00 | 48 | 1006.3 |
| 20260903010519 | 66 | 225 | 4.0 | 8.0 | 0.00 | 0.00 | 0.00 | 48 | 1006.2 |
| 20260903005519 | 65 | 203 | 6.0 | 17.0 | 0.00 | 0.00 | 0.00 | 48 | 1006.2 |
| 20260903004519 | 65 | 203 | 7.0 | 14.0 | 0.00 | 0.00 | 0.00 | 47 | 1006.1 |
| 20260903003539 | 66 | 225 | 6.0 | 12.0 | 0.00 | 0.00 | 0.00 | 46 | 1006.1 |
| 20260903002518 | 67 | 225 | 8.0 | 15.0 | 0.00 | 0.00 | 0.00 | 44 | 1006.2 |
| 20260903001519 | 67 | 225 | 12.0 | 20.0 | 0.00 | 0.00 | 0.00 | 41 | 1006.0 |
| 20260903000518 | 68 | 225 | 10.0 | 19.0 | 0.00 | 0.00 | 0.00 | 39 | 1006.0 |
| 20260902235538 | 68 | 225 | 10.0 | 16.0 | 0.00 | 0.00 | 0.00 | 38 | 1005.8 |
| 20260902234518 | 68 | 225 | 8.0 | 15.0 | 0.00 | 0.00 | 0.00 | 40 | 1005.8 |
| 20260902233520 | 68 | 225 | 9.0 | 18.0 | 0.00 | 0.00 | 0.00 | 42 | 1005.8 |
| 20260902232539 | 68 | 225 | 10.0 | 19.0 | 0.00 | 0.00 | 0.00 | 42 | 1005.8 |
| 20260902231519 | 67 | 225 | 11.0 | 18.0 | 0.00 | 0.00 | 0.00 | 43 | 1005.7 |
| 20260902230518 | 67 | 225 | 13.0 | 23.0 | 0.00 | 0.00 | 0.00 | 45 | 1005.6 |
| 20260902225520 | 68 | 225 | 14.0 | 22.0 | 0.00 | 0.00 | 0.00 | 44 | 1005.5 |
| 20260902224521 | 68 | 225 | 15.0 | 24.0 | 0.00 | 0.00 | 0.00 | 46 | 1005.6 |
| 20260902223519 | 71 | 225 | 20.0 | 31.0 | 0.00 | 0.00 | 0.00 | 40 | 1005.4 |
| 20260902222518 | 74 | 225 | 2.0 | 5.0 | 0.00 | 0.00 | 0.00 | 35 | 1005.1 |
| 20260902221520 | 75 | 203 | 2.0 | 5.0 | 0.00 | 0.00 | 0.00 | 35 | 1004.9 |
| 20260902220540 | 74 | 0.0 | 4.0 | 0.00 | 0.00 | 0.00 | 32 | 1004.8 | |
| 20260902215518 | 74 | 225 | 2.0 | 5.0 | 0.00 | 0.00 | 0.00 | 34 | 1005.0 |
| 20260902214538 | 75 | 225 | 3.0 | 6.0 | 0.00 | 0.00 | 0.00 | 32 | 1005.0 |
| 20260902213520 | 75 | 225 | 3.0 | 6.0 | 0.00 | 0.00 | 0.00 | 31 | 1004.9 |
| 20260902212540 | 76 | 203 | 3.0 | 7.0 | 0.00 | 0.00 | 0.00 | 30 | 1005.1 |
| 20260902211520 | 76 | 203 | 2.0 | 4.0 | 0.00 | 0.00 | 0.00 | 31 | 1004.9 |
| 20260902210520 | 76 | 180 | 2.0 | 3.0 | 0.00 | 0.00 | 0.00 | 31 | 1005.1 |
| 20260902205520 | 76 | 158 | 2.0 | 5.0 | 0.00 | 0.00 | 0.00 | 30 | 1005.2 |
| 20260902204519 | 76 | 203 | 3.0 | 8.0 | 0.00 | 0.00 | 0.00 | 29 | 1005.2 |
| 20260902203540 | 77 | 225 | 3.0 | 9.0 | 0.00 | 0.00 | 0.00 | 30 | 1005.3 |
| 20260902202519 | 75 | 225 | 4.0 | 10.0 | 0.00 | 0.00 | 0.00 | 30 | 1005.4 |
| 20260902201540 | 74 | 225 | 2.0 | 4.0 | 0.00 | 0.00 | 0.00 | 32 | 1005.7 |
| 20260902200518 | 75 | 225 | 6.0 | 11.0 | 0.00 | 0.00 | 0.00 | 30 | 1005.7 |
| 20260902195520 | 75 | 203 | 5.0 | 11.0 | 0.00 | 0.00 | 0.00 | 30 | 1006.0 |
| 20260902194520 | 74 | 203 | 3.0 | 9.0 | 0.00 | 0.00 | 0.00 | 31 | 1006.1 |
| 20260902193520 | 74 | 225 | 8.0 | 13.0 | 0.00 | 0.00 | 0.00 | 31 | 1006.3 |
| 20260902192520 | 74 | 225 | 8.0 | 14.0 | 0.00 | 0.00 | 0.00 | 33 | 1006.4 |
| 20260902191519 | 73 | 203 | 6.0 | 11.0 | 0.00 | 0.00 | 0.00 | 32 | 1006.4 |
| 20260902190541 | 72 | 203 | 6.0 | 13.0 | 0.00 | 0.00 | 0.00 | 33 | 1006.5 |
| 20260902185520 | 73 | 203 | 5.0 | 10.0 | 0.00 | 0.00 | 0.00 | 36 | 1006.6 |
| 20260902184540 | 71 | 180 | 2.0 | 6.0 | 0.00 | 0.00 | 0.00 | 38 | 1006.6 |
| 20260902183520 | 70 | 203 | 1.0 | 4.0 | 0.00 | 0.00 | 0.00 | 39 | 1006.7 |
| 20260902182541 | 71 | 203 | 3.0 | 10.0 | 0.00 | 0.00 | 0.00 | 36 | 1006.9 |
| 20260902181520 | 70 | 203 | 3.0 | 7.0 | 0.00 | 0.00 | 0.00 | 41 | 1006.9 |
| 20260902180520 | 70 | 203 | 4.0 | 8.0 | 0.00 | 0.00 | 0.00 | 40 | 1007.0 |
| 20260902175520 | 70 | 203 | 6.0 | 12.0 | 0.00 | 0.00 | 0.00 | 38 | 1007.1 |
| 20260902174519 | 69 | 203 | 6.0 | 15.0 | 0.00 | 0.00 | 0.00 | 39 | 1007.1 |
| 20260902173520 | 68 | 203 | 2.0 | 6.0 | 0.00 | 0.00 | 0.00 | 42 | 1007.0 |
| 20260902172520 | 67 | 203 | 2.0 | 5.0 | 0.00 | 0.00 | 0.00 | 45 | 1006.9 |
| 20260902171520 | 67 | 0.0 | 2.0 | 0.00 | 0.00 | 0.00 | 47 | 1007.0 | |
| 20260902170520 | 66 | 158 | 1.0 | 6.0 | 0.00 | 0.00 | 0.00 | 47 | 1007.0 |